Stations météo

réclame
Mon MeteoGroup
Koblenz/Falkensteinkaserne, Allemagne (10516): Température de l'air & dewpoint: 11.07.2018 13:00:00 - 17.07.2018 13:00:00 (CEST)Koblenz/Falkensteinkaserne, Allemagne (10516): Vitesse du vent: 11.07.2018 13:00:00 - 17.07.2018 13:00:00 (CEST)Koblenz/Falkensteinkaserne, Allemagne (10516): Direction du vent: 11.07.2018 13:00:00 - 17.07.2018 13:00:00 (CEST)Koblenz/Falkensteinkaserne, Allemagne (10516): reduced air pressure: 11.07.2018 13:00:00 - 17.07.2018 13:00:00 (CEST)Koblenz/Falkensteinkaserne, Allemagne (10516): visibility: 11.07.2018 13:00:00 - 17.07.2018 13:00:00 (CEST)
Date & Time tt [°C] td [°C] ff [km/h] ff [knt] dd ppp [hPa] vv [km]
17.07.2018 13:00:00 28,2 10,7 7 4 NNW 1014,7 35
17.07.2018 12:00:00 26,5 11,2 7 4 NW 1014,7 40
17.07.2018 11:00:00 24,5 11,3 7 4 NNW 1014,8 40
17.07.2018 10:00:00 22,3 10,6 4 2 WSW 1014,9 40
17.07.2018 09:00:00 20,1 10,4 4 2 SW 1014,9 40
17.07.2018 08:00:00 17,7 11,7 4 2 N 1014,9 40
17.07.2018 07:00:00 16,1 11,4 4 2 W 1014,4 40
17.07.2018 06:00:00 16,0 11,3 7 4 SSW 1014,1 -
17.07.2018 05:00:00 16,1 11,9 7 4 SW 1013,8 -
17.07.2018 04:00:00 16,9 12,0 4 2 N 1013,6 -
17.07.2018 03:00:00 18,2 11,6 4 2 N 1013,5 -
17.07.2018 02:00:00 18,8 12,3 7 4 SW 1013,5 -
17.07.2018 01:00:00 20,6 11,8 7 4 SSE 1013,2 -
17.07.2018 00:00:00 22,1 11,8 7 4 N 1012,9 -
16.07.2018 23:00:00 23,5 10,2 4 2 NE 1012,2 -
16.07.2018 22:00:00 25,1 9,6 7 4 N 1011,7 -
16.07.2018 21:00:00 26,9 9,8 7 4 ESE 1011,0 40
16.07.2018 20:00:00 28,9 10,0 11 6 NE 1010,5 40
16.07.2018 19:00:00 29,9 2,9 11 6 WNW 1010,2 40
16.07.2018 18:00:00 30,0 5,0 7 4 NNW 1010,2 40
16.07.2018 17:00:00 30,5 5,3 7 4 W 1010,3 40
16.07.2018 16:00:00 30,2 6,3 7 4 N 1010,9 40
16.07.2018 15:00:00 29,9 5,9 11 6 NNW 1011,3 40
16.07.2018 14:00:00 28,5 9,0 7 4 WNW 1012,0 40
16.07.2018 13:00:00 28,0 11,0 7 4 NE 1012,5 40
16.07.2018 12:00:00 26,0 12,2 7 4 N 1013,1 30
16.07.2018 11:00:00 23,7 12,2 7 4 NNW 1013,4 30
16.07.2018 10:00:00 21,9 12,3 4 2 SE 1013,9 30
16.07.2018 09:00:00 20,1 12,0 4 2 W 1014,2 30
16.07.2018 08:00:00 18,1 12,5 7 4 S 1014,4 30
16.07.2018 07:00:00 16,8 12,3 0 0 N 1014,5 30
16.07.2018 06:00:00 15,9 12,4 4 2 N 1014,6 -
16.07.2018 05:00:00 16,8 12,0 4 2 N 1014,5 -
16.07.2018 04:00:00 17,3 12,5 4 2 N 1014,5 -
16.07.2018 03:00:00 19,0 11,8 7 4 N 1014,4 -
16.07.2018 02:00:00 20,0 11,6 4 2 N 1014,5 -
16.07.2018 01:00:00 20,8 10,8 4 2 S 1014,6 -
16.07.2018 00:00:00 22,1 10,8 7 4 SE 1014,3 -
15.07.2018 23:00:00 23,2 10,3 7 4 SSE 1014,4 -
15.07.2018 22:00:00 24,2 10,6 7 4 SSE 1013,6 -
15.07.2018 21:00:00 25,7 10,1 7 4 S 1013,2 -
15.07.2018 20:00:00 29,0 6,0 7 4 N 1012,5 -
15.07.2018 19:00:00 29,7 6,6 11 6 NW 1012,6 -
15.07.2018 18:00:00 29,2 6,1 11 6 N 1013,3 -
15.07.2018 17:00:00 29,9 6,4 11 6 NNW 1013,0 -
15.07.2018 16:00:00 29,7 6,5 11 6 NNW 1013,6 -
15.07.2018 15:00:00 28,8 5,7 11 6 NNW 1014,3 -
15.07.2018 14:00:00 28,1 6,7 11 6 NNW 1015,1 -
15.07.2018 13:00:00 27,1 7,8 7 4 N 1015,9 -
15.07.2018 12:00:00 25,8 8,7 7 4 NNW 1016,5 -
15.07.2018 11:00:00 24,2 12,2 4 2 NNW 1016,9 -
15.07.2018 10:00:00 21,7 12,5 4 2 NW 1017,4 -
15.07.2018 09:00:00 19,3 12,4 4 2 NNE 1017,6 -
15.07.2018 08:00:00 17,6 12,3 7 4 NNW 1017,4 -
15.07.2018 07:00:00 16,5 12,7 4 2 N 1017,6 -
15.07.2018 06:00:00 16,0 13,2 4 2 SW 1017,5 -
15.07.2018 05:00:00 16,5 13,4 7 4 SW 1017,7 -
15.07.2018 04:00:00 16,9 13,2 4 2 SW 1017,7 -
15.07.2018 03:00:00 17,9 13,1 7 4 N 1017,7 -
15.07.2018 02:00:00 18,6 12,9 4 2 N 1017,8 -
15.07.2018 01:00:00 20,2 12,0 4 2 NW 1017,7 -
15.07.2018 00:00:00 21,2 11,7 4 2 WNW 1017,8 -
14.07.2018 23:00:00 23,1 11,8 4 2 NE 1017,3 -
14.07.2018 22:00:00 24,3 11,2 7 4 NNW 1017,1 -
14.07.2018 21:00:00 26,1 10,9 11 6 N 1016,5 -
14.07.2018 20:00:00 27,1 10,6 14 8 N 1016,4 -
14.07.2018 19:00:00 27,9 10,4 11 6 N 1016,4 -
14.07.2018 18:00:00 28,4 9,9 14 8 NW 1016,6 -
14.07.2018 17:00:00 28,9 9,7 11 6 N 1016,6 -
14.07.2018 16:00:00 28,6 9,8 7 4 NNW 1017,0 -
14.07.2018 15:00:00 29,4 7,9 7 4 NNW 1017,5 -
14.07.2018 14:00:00 28,0 7,8 7 4 NNE 1018,1 -
14.07.2018 13:00:00 27,1 8,7 7 4 WNW 1018,8 -
14.07.2018 12:00:00 26,5 10,8 7 4 N 1019,3 -
14.07.2018 11:00:00 24,1 13,3 4 2 NNE 1019,8 -
14.07.2018 10:00:00 21,0 13,3 7 4 N 1020,3 -
14.07.2018 09:00:00 18,6 14,1 4 2 SW 1020,5 -
14.07.2018 08:00:00 16,7 13,9 4 2 N 1020,4 -
14.07.2018 07:00:00 16,2 14,1 7 4 SW 1020,3 -
14.07.2018 06:00:00 16,3 14,3 7 4 SSW 1020,0 -
14.07.2018 05:00:00 16,9 14,1 4 2 N 1020,0 -
14.07.2018 04:00:00 17,2 14,3 4 2 N 1019,8 -
14.07.2018 03:00:00 17,4 14,1 4 2 N 1019,9 -
14.07.2018 02:00:00 17,4 14,2 7 4 SW 1019,8 -
14.07.2018 01:00:00 18,0 14,4 4 2 SSW 1019,9 -
14.07.2018 00:00:00 18,8 15,0 4 2 N 1019,8 -
13.07.2018 23:00:00 20,2 15,2 7 4 N 1019,5 -
13.07.2018 22:00:00 22,1 14,7 7 4 SW 1019,1 -
13.07.2018 21:00:00 24,3 13,5 4 2 SSW 1018,5 -
13.07.2018 20:00:00 24,5 10,6 7 4 N 1018,4 -
13.07.2018 19:00:00 25,1 10,2 7 4 WNW 1018,5 20
13.07.2018 18:00:00 26,2 11,3 7 4 W 1018,7 20
13.07.2018 17:00:00 25,9 10,6 7 4 W 1018,8 20
13.07.2018 16:00:00 25,5 11,5 7 4 WNW 1019,1 18
13.07.2018 15:00:00 26,0 10,1 11 6 WNW 1019,2 15
13.07.2018 14:00:00 25,9 11,4 11 6 N 1019,5 15
13.07.2018 13:00:00 25,8 12,8 7 4 N 1020,0 15
13.07.2018 12:00:00 24,5 13,3 7 4 NNW 1020,2 14
13.07.2018 11:00:00 22,6 13,5 7 4 N 1020,4 12
13.07.2018 10:00:00 20,6 13,1 4 2 NNE 1020,8 12
13.07.2018 09:00:00 19,0 13,4 4 2 N 1020,8 12
13.07.2018 08:00:00 17,0 13,3 4 2 W 1020,8 12
13.07.2018 07:00:00 15,5 13,4 4 2 N 1020,8 12
13.07.2018 06:00:00 14,9 13,1 4 2 SW 1020,6 -
13.07.2018 05:00:00 15,6 13,5 7 4 SSW 1020,3 -
13.07.2018 04:00:00 16,1 13,7 7 4 SW 1020,0 -
13.07.2018 03:00:00 16,6 13,9 7 4 SSW 1019,7 -
13.07.2018 02:00:00 17,6 14,0 4 2 N 1019,3 -
13.07.2018 01:00:00 18,1 14,1 4 2 N 1019,3 -
13.07.2018 00:00:00 18,9 14,2 4 2 NW 1019,3 -
12.07.2018 23:00:00 20,3 14,2 7 4 SW 1018,8 -
12.07.2018 22:00:00 22,3 12,9 4 2 N 1018,2 -
12.07.2018 21:00:00 23,9 12,0 7 4 NW 1017,7 20
12.07.2018 20:00:00 24,9 12,0 11 6 NW 1017,4 20
12.07.2018 19:00:00 25,2 12,6 7 4 NW 1017,3 20
12.07.2018 18:00:00 24,2 12,1 11 6 NW 1017,5 15
12.07.2018 17:00:00 24,6 12,7 11 6 NW 1017,6 13
12.07.2018 16:00:00 24,1 13,4 7 4 NW 1018,1 13
12.07.2018 15:00:00 22,5 12,8 7 4 N 1018,3 12
12.07.2018 14:00:00 21,3 12,4 7 4 NW 1018,6 12
12.07.2018 13:00:00 20,7 13,0 14 8 NW 1018,6 12
12.07.2018 12:00:00 21,0 12,6 11 6 NNW 1018,5 10
12.07.2018 11:00:00 19,9 13,3 11 6 N 1018,4 8
12.07.2018 10:00:00 18,2 13,8 7 4 N 1018,5 8
12.07.2018 09:00:00 17,4 13,7 7 4 NNW 1018,1 7
12.07.2018 08:00:00 16,9 13,9 4 2 N 1017,8 6
12.07.2018 07:00:00 16,5 13,8 7 4 NNW 1017,6 8
12.07.2018 06:00:00 16,1 14,3 7 4 WNW 1017,3 -
12.07.2018 05:00:00 16,0 14,6 4 2 W 1017,1 -
12.07.2018 04:00:00 16,3 14,8 7 4 NNW 1016,9 -
12.07.2018 03:00:00 16,3 14,8 7 4 WNW 1017,0 -
12.07.2018 02:00:00 16,3 14,7 7 4 WNW 1017,0 -
12.07.2018 01:00:00 16,1 14,4 7 4 N 1017,0 -
12.07.2018 00:00:00 16,5 14,1 4 2 WNW 1017,0 -
11.07.2018 23:00:00 16,4 14,1 7 4 N 1017,3 -
11.07.2018 22:00:00 16,7 13,9 7 4 NW 1016,9 -
11.07.2018 21:00:00 17,7 12,6 7 4 NW 1016,7 12
11.07.2018 20:00:00 18,2 11,5 14 8 NW 1016,9 15
11.07.2018 19:00:00 20,0 9,6 11 6 NNW 1016,2 15
11.07.2018 18:00:00 20,7 8,9 7 4 W 1016,1 15
11.07.2018 17:00:00 21,1 7,8 11 6 NW 1016,3 15
11.07.2018 16:00:00 21,2 7,1 7 4 N 1016,4 15
11.07.2018 15:00:00 20,8 8,1 18 10 NNW 1016,8 15
11.07.2018 14:00:00 20,0 8,7 11 6 NNW 1016,7 15
11.07.2018 13:00:00 19,9 10,0 11 6 NNW 1016,9 10

tt = Température de l'air
td = dewpoint
ff = Vitesse du vent
dd = Direction du vent
ppp = reduced air pressure
vv = visibility

stations d'obs. à proximité